Flag for Germany Weather past 2 weeks in Celle, Lower Saxony, Germany

Now
52 °F

Cool.


Feels Like: 49 °F
Forecast: 45 / 50 °F
Wind: 8 mph from Southwest

Location: Celle Airport

Current Time: Mar 28, 2015 at 5:37:29 PM

Latest Report: Mar 28, 2015 at 4:20 PM


Visibility: N/A

Pressure: 29.92 "Hg

Humidity: 50%

Dew point: 34 °F

Location of CelleLocation

Historic Weather in Celle — Graph

°F

Celle temperature yesterday

Maximum temperature yesterday: 46 °F (at 9:20 AM)
Minimum temperature yesterday: 41 °F (at 12:20 AM)
Average temperature yesterday: 43 °F

Past Weeks' High & Low Weather Summary

 TemperatureHumidityPressure
High61 °F (Mar 25, 3:20 PM)100% (Mar 20, 11:20 PM)30.42 "Hg (Mar 20, 11:20 PM)
Low27 °F (Mar 20, 5:20 AM)31% (Mar 19, 3:20 PM)29.65 "Hg (Mar 25, 3:20 PM)
Average42 °F74%30.13 "Hg
* Reported Mar 13 4:20 PM — Mar 28 4:20 PM, Celle, Weather by CustomWeather, © 2015

Note: Actual official high and low records may vary slightly from our data, if they occured in-between our weather recording intervals... More about our weather records

Advertising

Celle weather history for previous 24 hours

 ConditionsComfort  
Time TempWeatherWind HumidityBarometerVisibility
4:20 PM
Sat, Mar 28
52 °FCool.8 mph50%29.92 "HgN/A
3:20 PM52 °FCool.10 mph47%29.95 "HgN/A
2:20 PM52 °FCool.10 mph44%29.98 "HgN/A
1:20 PM50 °FCool.12 mph47%30.01 "HgN/A
12:20 PM48 °FCool.8 mph50%30.07 "HgN/A
5:20 AM39 °FPassing clouds.3 mph93%30.15 "HgN/A
4:20 AM39 °FPassing clouds.5 mph93%30.15 "Hg6 mi
3:20 AM39 °FPassing clouds.3 mph93%30.15 "Hg6 mi
2:20 AM39 °FPassing clouds.5 mph93%30.15 "Hg6 mi
1:20 AM39 °FPassing clouds.5 mph93%30.15 "Hg6 mi
12:20 AM39 °FPassing clouds.6 mph93%30.15 "Hg6 mi
11:20 PM
Fri, Mar 27
41 °FPassing clouds.6 mph87%30.12 "Hg6 mi
10:20 PM41 °FPassing clouds.6 mph93%30.12 "Hg6 mi
9:20 PM41 °FPassing clouds.12 mph93%30.09 "Hg6 mi
8:20 PM43 °FLight rain. Passing clouds.10 mph87%30.07 "HgN/A
7:20 PM43 °FPassing clouds.12 mph87%30.04 "HgN/A
6:20 PM43 °FPartly sunny.12 mph87%30.01 "HgN/A
5:20 PM43 °FBroken clouds.17 mph87%29.98 "HgN/A
Weather by CustomWeather, © 2015

See weather overviewHow to use our weather pages